Details From LEMG - Malaga
To LEAM - Almeria
Flight Number -
Tags decoded
Created
Modified
Stats Distance 106 nm / 197 km
Max Altitude 0 ft / 0 m
Waypoints 4
Social Downloads 5
Likes 0
Share VATSIM

Download

Looking for another format? Having issues loading an existing format? Contact us
Advertisement - Login to hide

Notes

Requested: LEMG MGA ADRAS LEAM

Route

LEMG MGA ADRAS LEAM

ID Type Via Altitude (ft/m) Position (lat/lon) Dist (leg/tot) Name
O LEMG APT - 0 / 0 36.67978 / -4.49590 - / 0 nm Malaga
MGA VOR - 0 / 0 36.81431 / -4.36952 10 / 10 nm MALAGA VOR-DME
ADRAS FIX - 0 / 0 36.83216 / -2.72753 78 / 89 nm
O LEAM APT - 0 / 0 36.84393 / -2.37010 17 / 106 nm Almeria

Altitude Profile

Advertisement - Login to hide

LEMG

Details ICAO LEMG (AGP)
Name Malaga
Region Spain
Timezone Europe/Madrid (UTC+1.0)
Stats Elevation 52 ft / 16 m (AMSL)
Location 36.675000° -4.499170°
Runways 2
Magnetic Variation 0.734° W

METAR

LEMG 230130Z 09002KT 9999 FEW018 BKN028 13/09 Q1025 NOSIG

Decode

TAF

TAF LEMG 222300Z 2300/2324 11008KT 9999 SCT025 TX19/2314Z TN10/2306Z BECMG 2302/2304 29006KT BECMG 2308/2310 12014KT PROB40 TEMPO 2310/2318 12017G27KT

Decode

Departure Runways

ID Width Length Bearing (true/mag) Surface Threshold Overrun Markings Lighting
12 148 ft / 45 m 10,057 ft / 3,065 m 117.76° / 118.49° ASPHALT 0 ft / 0 m 745 ft / 227 m PREC-APP CENTERLINE EDGE THRESHOLD ALSF-I TDZ REIL-OMNI
13 148 ft / 45 m 10,509 ft / 3,203 m 131.69° / 132.42° ASPHALT 0 ft / 0 m 246 ft / 75 m PREC-APP CENTERLINE EDGE THRESHOLD ALSF-I REIL-OMNI
30 148 ft / 45 m 10,057 ft / 3,065 m 297.78° / 298.51° ASPHALT 1,115 ft / 340 m 472 ft / 144 m PREC-APP CENTERLINE EDGE THRESHOLD REIL-OMNI
31 148 ft / 45 m 10,509 ft / 3,203 m 311.70° / 312.44° ASPHALT 0 ft / 0 m 246 ft / 75 m PREC-APP CENTERLINE EDGE THRESHOLD ALSF-I REIL-OMNI

LEAM

Details ICAO LEAM (LEI)
Name Almeria
Region Spain
Timezone Unknown
Stats Elevation 69 ft / 21 m (AMSL)
Location 36.843900° -2.370100°
Runways 1
Magnetic Variation 0.148° W

METAR

LEAM 230130Z AUTO 35003KT 290V020 9999 OVC086 13/06 Q1024

Decode

TAF

TAF TAF LEAM 222000Z 2221/2321 36007KT 9999 FEW035 TX20/2315Z TN10/2305Z BECMG 2307/2309 06014KT PROB40 TEMPO 2310/2318 07016G26KT PROB30 TEMPO 2312/2316 4000 SHRA SCT030TCU

Decode

Destination Runways

ID Width Length Bearing (true/mag) Surface Threshold Overrun Markings Lighting
07 148 ft / 45 m 10,508 ft / 3,203 m 72.94° / 73.08° ASPHALT 515 ft / 157 m 0 ft / 0 m APP EDGE THRESHOLD MALS REIL-OMNI
25 148 ft / 45 m 10,508 ft / 3,203 m 252.96° / 253.11° ASPHALT 0 ft / 0 m 0 ft / 0 m PREC-APP EDGE THRESHOLD CALVERT REIL-OMNI

Approach Navaids

Runway Type Ident Frequency Range Bearing (true/mag) Slope Elevation
25 LOC-ILS IAM 109.90 MHz 18 nm / 33 km 252.95° / 253.10 ° - 69 ft / 21 m (AMSL)
25 GS IAM 109.90 MHz 10 nm / 19 km 252.95° / 253.10 ° 3.00° 69 ft / 21 m (AMSL)
25 DME IAM 109.90 MHz 18 nm / 33 km - - 95 ft / 29 m (AMSL)
25 OM OM - - 252.95° / 253.10 ° - 70 ft / 21 m (AMSL)

Popular Alternatives